Timeline UpdatesTrip UpdatesNews PostsPvt PostsTravel TipsAdmin PostsConv PostsFollowed PostsChat RequestsBlog PostsPNR Posts

Disclaimer
Search
 
 
Thu Apr 17, 2014 16:32:02 ISTHomeTrainsΣChainsAtlasPNRForumGalleryNewsFAQTripsMembersLoginFeedback
No Recent News for this Train
Other Trains in the News **new
Latest...
.
Sun Oct 07, 2012 (10:22AM)
⇐ Return Journey: Train# 57660

57659/Solapur - Falaknuma Passenger (UnReserved)

Sep 12 2013 (2:26PM)
Change Departure Station:
Change Arrival Station:
Post a Train Travel TipPost a Train Travel Tip **new
Post a Comment/Question/Picture/VideoPost a Comment/Question/Picture/Video
Pantry/Catering
✕ NO Pantry Car
✕ NO Catering
RSA - Rake Sharing
57642 GDG SUR Passenger
Rake/Coach Composition
Loco, SLR, UR 1 To UR 9, SLR
Loco
#WDM 2a Pune/Maula ali Shed
News    PNR    Forum    Time-Table    Availability    Fare Chart    Map    Arr/Dep History    Trips    Gallery    ΣChains    X/O    Timeline    
Travel Time: 3h 55m    17 halts    Distance: 149 km    Avg Speed: 38 km/hr
Type: Passenger
Zone: SCR/South Central
Departs @ 10:20 (Avg 40m late)
Platform# 2
SMTWTFS
Solapur/SUR 
Arrives @ 14:15 (Avg 1h 27m late)
Platform# 1
SMTWTFS
Wadi Junction/WADI 

17 halts. 17 intermediate Stations between Solapur and Wadi Junction

Show ALL intermediate Stations  Show Old Time-Table

#CodeStation NameX/OArrivesAvgDepartsAvgHaltPFDay#KmSpeedElevZoneAddress
1SUR»Solapur (5)»  -10:20+40210.041461mCRSolapur 413001, Maharashtra
2TKWDTikekarwadi (2)  10:30+4310:31+451m--16.969477mCRSolapur, Maharashtra
3HGHotgi Junction (3)X  10:38+5010:40+1:042m3114.956473mCRHotgi 413215, Maharashtra
4TLTTilati  10:50+1:0610:51+1:161m--124.366454mCRAkalkot Road, Maharashtra
5AKORAkalkot Road (2)X  11:01+1:1811:02+1:251m--135.346456mCRDist Solapur, Maharashtra
6NGSNagansur  11:09+1:2811:10+1:361m--140.737487mCRSolapur, Maharashtra
7BOTBoroti  11:24+1:3311:25+1:381m--149.260466mCRSolapur, Maharashtra
8DUDDudhani (2)X  11:39+1:3911:40+1:421m1163.241457mCRSolapur, Maharashtra
9KUIKulali  11:54+1:3911:55+1:411m--172.848455mCRBhognalli - Ravoor - Dudhani Rd, Karnataka
10GDGNGaudgaon  12:04+1:4112:05+1:421m--180.053444mCRBhognalli Sindnoor Rd, Karnataka
11GURGanagapur Road  12:12+1:4312:13+1:471m--186.254445mCRDist Gulbarga, Karnataka
12HHDHunsihadgil  12:20+1:5012:22+1:512m--192.563479mCRGulburga, Karnataka
13SVGSawalgi  12:29+1:5212:31+1:532m--199.955462mCRGulburga, Karnataka
14BBDBabladX  12:39+1:5412:40+1:541m--1107.216461mCRGulburga, Karnataka
15GRGulbarga (4)  13:00+1:3513:05+1:385m21112.648458mCRGulbarga 585101, Karnataka
16HQRHirenanduru  13:16+1:4713:17+1:481m--1121.465469mCRNandoor K, Karnataka
17MRMartur  13:24+1:4813:25+1:481m--1129.018427mCRGulbarga, Karnataka
18SDBShahabad (3)  13:59+1:2514:00+1:261m21139.340403mCRShahabad, Karnataka
19WADI•Wadi Junction (4)•  14:15+1:2714:20+1:325m11149.453431mCRWadi, Karnataka
20SUHSulehalli (1)  14:30+1:4014:31+1:401m11158.360447mSCRState Highway 51, Karnataka
21CTChittapur (3)  14:37+1:4314:38+1:431m--1164.358427mSCRChitapur, Karnataka
22MQRMalkhaid Road (2)X  14:48+1:4314:49+1:431m--1174.073431mSCRMalkhaid Road, Karnataka
23SEMSedam (3)  14:59+1:4915:00+1:501m--1186.163420mSCRSedam ph.no 08441 276066, Karnataka
24KQTKurgunta  15:08+1:5215:09+1:531m--1194.546421mSCRGulbarga, Karnataka
25NAWNawandgi (2)X  15:19+1:5315:20+1:541m--1202.159437mSCRBashirabad, Andhra Pradesh
26MVHMantatti (2)X  15:29+1:5415:30+1:551m--1211.026443mSCRTandur, Andhra Pradesh
27TDUTandur (3)  15:50+1:4715:52+1:492m--1219.659457mSCRTandur, Andhra Pradesh
28RMYRukmapur (2)X  16:03+1:5016:04+1:501m--1230.451465mSCRTandur, Andhra Pradesh
29DRRDharurX  16:15+1:5016:16+1:501m--1239.892513mSCRRangareddy District, Andhra Pradesh
30MWYMailaram (2)X  16:20+1:5816:21+1:581m--1245.9101547mSCRRangareddy District, Andhra Pradesh
31GDQGodamgura (2)X  16:25+1:5816:26+1:591m--1252.660590mSCRTandur, Andhra Pradesh
32VKBVikarabad Junction (3)X  16:35+1:5916:45+1:5310m11261.7105633mSCRVikarabad, Andhra Pradesh
33CTFChitgidda  16:51+1:5916:52+1:591m--1272.152607mSCRVikarabad, Andhra Pradesh
34GGDGullagudaX  17:00+2:0017:01+2:001m--1279.074599mSCRShankarpalli, Andhra Pradesh
35RPKRavulapalli Kalan (2)  17:06+1:3317:07+1:331m11285.29582mSCRRavulapalli., Andhra Pradesh
36SKPShankarpalli (2)X  17:44+1:3117:45+1:311m11290.673574mSCRRangareddy, Andhra Pradesh
37NPLNagalapalle (2)  17:54+1:3917:55+1:401m11301.583561mSCRRangareddy, Andhra Pradesh
38LPILingampalli (6)X  18:02+1:3918:03+1:411m21311.252558mSCRHyderabad, Andhra Pradesh
39HFZHafizpet (2)X  18:09+1:4418:10+1:441m11316.562590mSCRHyderabad, Andhra Pradesh
40SNFSanathnagar (3)X  18:19+1:4518:20+1:451m11325.824547mSCRHyderabad, Andhra Pradesh
41BMTBegumpet (2)XO  18:29+1:4818:30+1:481m11329.412531mSCRHyderabad, Andhra Pradesh
42SCSecunderabad Junction (10)O  18:55+1:4919:00+1:545m41334.225539mSCRSecunderabad 500003, Andhra Pradesh
43STPDSitafalmandi (4)  19:05+1:5319:06+1:521m31336.367533mSCRSecunderabad, Andhra Pradesh
44ATCArts College (2)  19:07+1:5219:08+1:521m--1337.437521mSCRHyderabad, Andhra Pradesh
45JOOJamai Osmania (2)XO  19:09+1:5219:10+1:521m--1338.087515mSCRHyderabad, Andhra Pradesh
46VARVidya Nagar (2)X  19:11+1:5119:12+1:511m--1339.514505mSCRHyderabad, Andhra Pradesh
47KCGHyderabad Kacheguda (5)X  19:20+1:4919:22+1:492m--1341.448494mSCRHyderabad - 500027, Andhra Pradesh
48MXTMalakpet (2)  19:24+1:5019:25+1:501m21343.038494mSCRHyderabad, Andhra Pradesh
49DQRDabirpura (2)O  19:27+1:5019:28+1:501m--1344.211500mSCRHyderabad, Andhra Pradesh
50YKAYakutpura (2)  19:32+1:5019:33+1:501m--1345.049505mSCRHyderabad, Andhra Pradesh
51HPGHuppuguda (2)  19:36+1:2919:37+1:291m--1347.53520mSCRHyderabad, Andhra Pradesh
52FMFalaknuma (3)  20:05+1:24---1348.7-523mSCRHyderabad, Andhra Pradesh
Scroll to Top
Scroll to Bottom